星链-5147 (STARLINK-5147 )

导读

STARLINK-5147是美国太空探索技术公司Starlink星链互联网卫星计划中的一颗卫星,于2022年10月5日发射升空,归属美国所有。它属于星链星座的组网卫星,旨在为全球各地提供低延迟、高速率的卫星互联网接入服务,进一步补充星链低轨卫星星座的全球覆盖能力,是Starlink星座组网进程中推进全球互联网布局的组成单元。

基本信息
目录编号:
53985
目录名称:
STARLINK-5147
国际标识:
2022-125X
轨道中心:
EARTH
卫星名称:
星链-5147
卫星全名:
星链-5147 (STARLINK-5147 )
卫星状态:
在轨 (已飞行1349 天)
发射日期:
2022-10-05 UTC
国别 :
美国 (US)
星等 :
--
轨道信息
数据来源 国际轨道数据 AOE轨道数据
星历时间 2026-06-14T23:04:26+0800
16小时前
查看轨道信息
2026-06-12T18:00:00+0800
2天前
查看轨道信息
半长轴 6917.912km 6917.904km
偏心率 0.0001255 0.0001403
轨道倾角 53.161° 53.158°
近地点辐角 78.868° 71.407°
升交点赤经 139.100° 149.045°
平近点角 281.246° 150.179°
近地点 538.906km 538.796km
远地点 540.644km 540.738km
周期 95.438分钟 95.438分钟
每日圈数 15.088299 15.088325
详细信息
固有亮度:
5
最大亮度:
2.5
卫星平台:
Starlink v1.5
覆盖范围:
全球
运营商:
太空探索技术公司
运营商所在国:
美国
制造商(研发单位):
太空探索技术公司
制造商所在国:
美国
使用方式:
暂无
卫星简介
星链(Starlink)计划是由太空探索技术公司(SpaceX)提出的一个巨型低轨卫星互联网星座项目,计划在2019年至2024年间在太空搭建由约1.2万颗卫星组成的“星链”网络,其中1584颗将部署在地球上空550千米处的近地轨道,并从2020年开始工作。该卫星仍在工作。
2D轨道图
3D轨道图
轨道高度分析图
轨道倾角分析图
轨道综合分析图
查看轨道综合分析图